Zuerich-Taenikon, Switzerland

12:15 PM CET on January 19, 2017 (GMT +0100)
Zurich Airport

Weather History for LSZH - February, 2014

Change the Weather History Date:

Friday, February 28, 2014

  Actual Average Record
Temperature  
Mean Temperature 44 °F -  
Max Temperature 51 °F 42 °F 55 °F (1997)
Min Temperature 37 °F 27 °F 10 °F (2005)
Degree Days  
Heating Degree Days 21    
Moisture  
Dew Point 36 °F    
Average Humidity 75    
Maximum Humidity 93    
Minimum Humidity 46    
Precipitation  
Precipitation 0.00 in - - ()
Sea Level Pressure  
Sea Level Pressure 29.70 in    
Wind  
Wind Speed 7 mph ()    
Max Wind Speed 14 mph    
Max Gust Speed -    
Visibility 7.2 miles    
Events Rain    
Averages and records for this station are not official NWS values.
T = Trace of Precipitation, MM = Missing Value Source: Averaged Metar Reports

Daily Weather History Graph

Daily Weather History Graph

Search for Another Location

Airport or City:

Trip Planner

Search our weather history database for the weather conditions in past years. The results will help you decide how hot, cold, wet, or windy it might be!

Date:

Astronomy

Feb. 28, 2014 Rise Set
Actual Time 7:08 AM CET 6:09 PM CET
Civil Twilight 6:37 AM CET 6:39 PM CET
Nautical Twilight 6:02 AM CET 7:15 PM CET
Astronomical Twilight 5:26 AM CET 7:51 PM CET
Moon 6:14 AM CET (2/28) 5:26 PM CET (2/28)
Length of Visible Light 12h 02m
Length of Day
11h 00m
Waning Crescent, 1% of the Moon is Illuminated
Feb 28
Waning Crescent
Mar 1
New
Mar 8
First Quarter
Mar 16
Full
Mar 24
Last Quarter

Hourly Weather History & Observations

Time (CET) Temp. Windchill Dew Point Humidity Pressure Visibility Wind Dir Wind Speed Gust Speed Precip Events Conditions
12:00 AM 40 °F - 35 °F 75% 29.97 in - SW 12.7 mph - -  
12:20 AM 39.2 °F 32.5 °F 35.6 °F 87% 29.92 in 6.2 mi SW 10.4 mph - N/A Rain Light Rain Showers
12:50 AM 39.2 °F 31.2 °F 35.6 °F 87% 29.92 in 6.2 mi SW 13.8 mph - N/A Rain Light Rain Showers
1:00 AM 39 °F - 36 °F 83% 29.98 in 6 mi WSW 10.4 mph - - Rain Light Rain Showers
1:50 AM 39.2 °F 33.0 °F 35.6 °F 87% 29.92 in 6.2 mi SW 9.2 mph - N/A   Mostly Cloudy
2:00 AM 40 °F - 35 °F 75% 29.96 in - SW 9.2 mph - -  
2:20 AM 39.2 °F 33.0 °F 35.6 °F 87% 29.92 in 6.2 mi SW 9.2 mph - N/A   Mostly Cloudy
2:50 AM 41.0 °F 35.8 °F 35.6 °F 81% 29.89 in 6.2 mi WSW 8.1 mph - N/A   Mostly Cloudy
3:00 AM 40 °F - 35 °F 75% 29.94 in - SW 9.2 mph - -  
3:20 AM 39.2 °F 33.6 °F 35.6 °F 87% 29.89 in 6.2 mi SSW 8.1 mph - N/A   Mostly Cloudy
3:50 AM 39.2 °F 35.0 °F 35.6 °F 87% 29.86 in 6.2 mi SSW 5.8 mph - N/A   Mostly Cloudy
4:00 AM 40 °F - 35 °F 75% 29.90 in 16 mi SW 9.2 mph - -   Partly Cloudy
4:20 AM 39.2 °F 34.2 °F 35.6 °F 87% 29.86 in 6.2 mi South 6.9 mph - N/A Rain Light Rain Showers
4:50 AM 39.2 °F 35.0 °F 35.6 °F 87% 29.86 in 6.2 mi WSW 5.8 mph - N/A Rain Light Rain Showers
5:00 AM 40 °F - 35 °F 75% 29.89 in - WSW 8.1 mph - -  
5:20 AM 39.2 °F 34.2 °F 35.6 °F 87% 29.83 in 6.2 mi SW 6.9 mph - N/A Rain Light Rain Showers
5:50 AM 39.2 °F 34.2 °F 35.6 °F 87% 29.83 in 6.2 mi SSW 6.9 mph - N/A Rain Light Rain Showers
6:00 AM 39 °F - 36 °F 83% 29.88 in - SSW 8.1 mph - -  
6:20 AM 39.2 °F 35.9 °F 35.6 °F 87% 29.83 in 6.2 mi South 4.6 mph - N/A   Mostly Cloudy
6:50 AM 39.2 °F 35.0 °F 35.6 °F 87% 29.80 in 6.2 mi South 5.8 mph - N/A   Mostly Cloudy
7:00 AM 39 °F - 35 °F 80% 29.85 in 12 mi SSW 8.1 mph - -   Mostly Cloudy
7:20 AM 39.2 °F 35.0 °F 35.6 °F 87% 29.80 in 6.2 mi SSE 5.8 mph - N/A   Mostly Cloudy
7:50 AM 39.2 °F 35.0 °F 35.6 °F 87% 29.80 in 6.2 mi SSE 5.8 mph - N/A   Mostly Cloudy
8:00 AM 39 °F - 36 °F 83% 29.84 in - South 4.6 mph - -  
8:20 AM 39.2 °F 35.9 °F 35.6 °F 87% 29.77 in 6.2 mi SSE 4.6 mph - N/A   Mostly Cloudy
8:50 AM 39.2 °F 35.0 °F 35.6 °F 87% 29.77 in 6.2 mi SSE 5.8 mph - N/A   Mostly Cloudy
9:00 AM 40 °F - 36 °F 79% 29.81 in - SSE 5.8 mph - -  
9:20 AM 39.2 °F 34.2 °F 37.4 °F 93% 29.74 in 6.2 mi SE 6.9 mph - N/A   Mostly Cloudy
9:50 AM 42.8 °F 39.3 °F 37.4 °F 81% 29.74 in 6.2 mi SE 5.8 mph - N/A   Mostly Cloudy
10:00 AM 41 °F - 35 °F 72% 29.76 in 19 mi SE 4.6 mph - -   Mostly Cloudy
10:20 AM 42.8 °F 40.1 °F 35.6 °F 76% 29.71 in 6.2 mi South 4.6 mph - N/A   Mostly Cloudy
10:50 AM 44.6 °F 40.7 °F 37.4 °F 76% 29.68 in 6.2 mi SSW 6.9 mph - N/A   Mostly Cloudy
11:00 AM 44 °F - 36 °F 63% 29.72 in - SW 6.9 mph - -  
11:20 AM 44.6 °F 40.7 °F 35.6 °F 71% 29.68 in 6.2 mi South 6.9 mph - N/A   Scattered Clouds
11:50 AM 46.4 °F 43.5 °F 37.4 °F 71% 29.65 in 6.2 mi SW 5.8 mph - N/A   Scattered Clouds
12:00 PM 46 °F - 35 °F 54% 29.67 in - West 4.6 mph - -  
12:20 PM 46.4 °F 44.3 °F 35.6 °F 66% 29.62 in 6.2 mi SE 4.6 mph - N/A   Scattered Clouds
12:50 PM 48.2 °F - 35.6 °F 62% 29.59 in 6.2 mi ESE 3.5 mph - N/A   Scattered Clouds
1:00 PM 48 °F - 34 °F 47% 29.62 in 19 mi South 2.3 mph - -   Scattered Clouds
1:20 PM 48.2 °F - 35.6 °F 62% 29.59 in 6.2 mi Variable 3.5 mph - N/A   Scattered Clouds
1:50 PM 50.0 °F - 35.6 °F 58% 29.56 in 6.2 mi Variable 3.5 mph - N/A   Mostly Cloudy
2:00 PM 50 °F - 35 °F 46% 29.56 in - ENE 6.9 mph - -  
2:20 PM 50.0 °F - 37.4 °F 62% 29.53 in 6.2 mi ENE 5.8 mph - N/A   Mostly Cloudy
2:50 PM 51.8 °F - 37.4 °F 58% 29.53 in 6.2 mi NE 5.8 mph - N/A   Mostly Cloudy
3:00 PM 51 °F - 37 °F 49% 29.54 in - NE 9.2 mph - -  
3:20 PM 50.0 °F - 37.4 °F 62% 29.53 in 6.2 mi NE 5.8 mph - N/A   Mostly Cloudy
3:50 PM 50.0 °F - 37.4 °F 62% 29.53 in 6.2 mi NE 6.9 mph - N/A   Mostly Cloudy
4:00 PM 49 °F - 37 °F 52% 29.55 in 22 mi NNE 8.1 mph - -   Scattered Clouds
4:20 PM 48.2 °F - 37.4 °F 66% 29.53 in 6.2 mi North 5.8 mph - N/A   Mostly Cloudy
4:50 PM 48.2 °F - 37.4 °F 66% 29.53 in 6.2 mi North 5.8 mph - N/A   Mostly Cloudy
5:00 PM 48 °F - 37 °F 56% 29.55 in - North 6.9 mph - -  
5:20 PM 48.2 °F - 37.4 °F 66% 29.53 in 6.2 mi NNW 6.9 mph - N/A   Mostly Cloudy
5:50 PM 46.4 °F 42.9 °F 37.4 °F 71% 29.53 in 6.2 mi North 6.9 mph - N/A   Mostly Cloudy
6:00 PM 47 °F - 37 °F 58% 29.56 in - NNE 5.8 mph - -  
6:20 PM 46.4 °F - 37.4 °F 71% 29.53 in 6.2 mi Variable 2.3 mph - N/A   Mostly Cloudy
6:50 PM 44.6 °F 39.2 °F 37.4 °F 76% 29.53 in 6.2 mi WNW 10.4 mph - N/A   Mostly Cloudy
7:00 PM 44 °F - 37 °F 68% 29.58 in 12 mi NW 8.1 mph - -   Scattered Clouds
7:20 PM 44.6 °F 40.7 °F 37.4 °F 76% 29.53 in 6.2 mi NW 6.9 mph - N/A   Mostly Cloudy
7:50 PM 42.8 °F 37.0 °F 37.4 °F 81% 29.56 in 6.2 mi WSW 10.4 mph - N/A   Mostly Cloudy
8:00 PM 43 °F - 36 °F 68% 29.61 in - WSW 8.1 mph - -  
8:20 PM 41.0 °F 34.3 °F 37.4 °F 87% 29.56 in 6.2 mi SW 11.5 mph - N/A   Mostly Cloudy
8:50 PM 41.0 °F 35.8 °F 37.4 °F 87% 29.59 in 6.2 mi West 8.1 mph - N/A   Mostly Cloudy
9:00 PM 41 °F - 36 °F 75% 29.62 in - WNW 5.8 mph - -  
9:20 PM 41.0 °F 35.8 °F 35.6 °F 81% 29.59 in 6.2 mi WSW 8.1 mph - N/A   Mostly Cloudy
9:50 PM 41.0 °F 35.2 °F 35.6 °F 81% 29.59 in 6.2 mi WSW 9.2 mph - N/A   Mostly Cloudy
10:00 PM 40 °F - 35 °F 78% 29.64 in 12 mi WSW 8.1 mph - -   Mostly Cloudy
10:20 PM 39.2 °F 33.0 °F 35.6 °F 87% 29.59 in 6.2 mi SW 9.2 mph - N/A   Mostly Cloudy
10:50 PM 39.2 °F 31.6 °F 35.6 °F 87% 29.59 in 6.2 mi SW 12.7 mph - N/A   Mostly Cloudy
11:00 PM 39 °F - 34 °F 76% 29.65 in - SW 11.5 mph - -  
11:20 PM 39.2 °F 33.6 °F 35.6 °F 87% 29.59 in 6.2 mi SSW 8.1 mph - N/A   Mostly Cloudy
11:50 PM 39.2 °F 34.2 °F 33.8 °F 81% 29.59 in 6.2 mi SSW 6.9 mph - N/A   Mostly Cloudy